Tracking 28790 objects as of 18-Apr-2024
HD Live streaming from Space Station
objects crossing your sky now

STARLINK-1500

Track STARLINK-1500 now!
10-day predictions
STARLINK-1500 is classified as:


NORAD ID: 45744
Int'l Code: 2020-038Q
Perigee: 553.3 km
Apogee: 555.3 km
Inclination: 53.1 °
Period: 95.6 minutes
Semi major axis: 6925 km
RCS: Unknown
Launch date: June 13, 2020
Source: United States (US)
Launch site: AIR FORCE EASTERN TEST RANGE (AFETR)
Your satellite tracking list
Your tracking list is empty




NASA's NSSDC Master Catalog

Two Line Element Set (TLE):
1 45744U 20038Q   24109.33864697  .00003598  00000-0  26028-3 0  9995
2 45744  53.0534  95.7208 0001428  92.6197 267.4955 15.06409141213067
Source of the keplerian elements: AFSPC